RYR34X EPKT-LIME

Flight info

Callsign RYR34X
Flight time 1h 25m
Altitude 36000
Route TUSIN DCT MIKOV DCT STO DCT INGID DCT DETSA/N0431F350 DCT BAKOR DCT NAXAV DCT RENTA/N0336F190 M984 LUSIL T772 EKLIB
Aircraft B738/M-SDE3FGILRWY/SB1

Departure

Time 2026-05-04 19:25
Airport Katowice Wojciech Korfanty International Airport (EPKT)

Arrival

Time 2026-05-04 20:50
Airport Il Caravaggio International Airport (LIME)
Time Latitude Longitude Altitude Speed Heading
2026-05-04 18:57 50.47183 19.07408 995 ft 0 kts 179°
2026-05-04 18:58 50.47181 19.07407 995 ft 0 kts 180°
2026-05-04 19:16 50.47186 19.07407 990 ft 4 kts 178°
2026-05-04 19:16 50.47212 19.07401 990 ft 4 kts 158°
2026-05-04 19:17 50.47232 19.07379 990 ft 4 kts 114°
2026-05-04 19:17 50.47235 19.07361 990 ft 2 kts 90°
2026-05-04 19:19 50.47235 19.07367 990 ft 3 kts 90°
2026-05-04 19:19 50.47235 19.07440 996 ft 10 kts 90°
2026-05-04 19:19 50.47234 19.07583 995 ft 15 kts 90°
2026-05-04 19:19 50.47234 19.07744 997 ft 14 kts 90°
2026-05-04 19:20 50.47234 19.07897 999 ft 14 kts 90°
2026-05-04 19:20 50.47233 19.08044 998 ft 13 kts 90°
2026-05-04 19:20 50.47233 19.08185 999 ft 13 kts 90°
2026-05-04 19:20 50.47233 19.08340 1003 ft 15 kts 90°
2026-05-04 19:21 50.47233 19.08518 1004 ft 17 kts 90°
2026-05-04 19:21 50.47232 19.08718 1000 ft 19 kts 90°
2026-05-04 19:21 50.47232 19.08936 1002 ft 21 kts 90°
2026-05-04 19:21 50.47231 19.09178 1001 ft 23 kts 90°
2026-05-04 19:22 50.47230 19.09422 1003 ft 22 kts 90°
2026-05-04 19:22 50.47231 19.09664 1005 ft 22 kts 90°
2026-05-04 19:22 50.47230 19.09899 1007 ft 21 kts 90°
2026-05-04 19:22 50.47272 19.10096 1011 ft 19 kts 52°
2026-05-04 19:23 50.47352 19.10254 1012 ft 18 kts 52°
2026-05-04 19:23 50.47430 19.10406 1013 ft 18 kts 45°
2026-05-04 19:23 50.47544 19.10444 1013 ft 17 kts 355°
2026-05-04 19:23 50.47595 19.10366 1013 ft 10 kts 275°
2026-05-04 19:24 50.47596 19.10252 1012 ft 12 kts 269°
2026-05-04 19:24 50.47596 19.09906 1009 ft 65 kts 270°
2026-05-04 19:24 50.47599 19.08816 1001 ft 132 kts 270°
2026-05-04 19:24 50.47606 19.07094 1139 ft 173 kts 270°
2026-05-04 19:25 50.47620 19.05209 2014 ft 168 kts 268°
2026-05-04 19:25 50.47631 19.03459 3026 ft 159 kts 265°
2026-05-04 19:25 50.47621 19.01572 3368 ft 188 kts 266°
2026-05-04 19:25 50.47615 18.99386 3594 ft 212 kts 266°
2026-05-04 19:26 50.47546 18.96993 3912 ft 225 kts 252°
2026-05-04 19:26 50.46694 18.94971 4488 ft 227 kts 220°
2026-05-04 19:26 50.45322 18.93719 5160 ft 231 kts 206°
2026-05-04 19:26 50.43789 18.92737 5575 ft 249 kts 203°
2026-05-04 19:27 50.42128 18.91751 6166 ft 260 kts 202°
2026-05-04 19:27 50.40414 18.90744 6908 ft 265 kts 202°
2026-05-04 19:27 50.38682 18.89721 7710 ft 267 kts 202°
2026-05-04 19:27 50.36934 18.88681 8487 ft 270 kts 202°
2026-05-04 19:28 50.35165 18.87621 9277 ft 274 kts 202°
2026-05-04 19:28 50.33373 18.86543 10040 ft 278 kts 202°
2026-05-04 19:28 50.31530 18.85429 10439 ft 295 kts 202°
2026-05-04 19:28 50.29542 18.84224 10629 ft 318 kts 202°
2026-05-04 19:29 50.27443 18.82952 11140 ft 327 kts 202°
2026-05-04 19:29 50.25308 18.81660 11877 ft 330 kts 202°
2026-05-04 19:29 50.23165 18.80364 12685 ft 331 kts 203°
2026-05-04 19:29 50.21011 18.79061 13505 ft 333 kts 203°
2026-05-04 19:30 50.18841 18.77749 14249 ft 337 kts 203°
2026-05-04 19:30 50.16642 18.76421 14938 ft 341 kts 203°
2026-05-04 19:30 50.14417 18.75077 15649 ft 345 kts 203°
2026-05-04 19:30 50.12166 18.73718 16368 ft 349 kts 203°
2026-05-04 19:31 50.09891 18.72347 17075 ft 353 kts 203°
2026-05-04 19:31 50.07590 18.70961 17774 ft 357 kts 203°
2026-05-04 19:31 50.05262 18.69561 18460 ft 361 kts 202°
2026-05-04 19:31 50.02906 18.68145 19003 ft 366 kts 202°
2026-05-04 19:32 50.00519 18.66712 19557 ft 371 kts 202°
2026-05-04 19:32 49.98097 18.65260 20110 ft 376 kts 202°
2026-05-04 19:32 49.95644 18.63791 20661 ft 380 kts 202°
2026-05-04 19:32 49.93162 18.62305 21215 ft 385 kts 202°
2026-05-04 19:33 49.90646 18.60801 21744 ft 389 kts 202°
2026-05-04 19:33 49.88106 18.59275 22264 ft 394 kts 204°
2026-05-04 19:33 49.85677 18.57284 22771 ft 397 kts 214°
2026-05-04 19:33 49.83480 18.54668 23293 ft 400 kts 223°
2026-05-04 19:34 49.81576 18.51518 23762 ft 403 kts 231°
2026-05-04 19:34 49.79791 18.48144 24210 ft 406 kts 232°
2026-05-04 19:34 49.78023 18.44726 24678 ft 408 kts 232°
2026-05-04 19:34 49.76246 18.41284 25145 ft 411 kts 232°
2026-05-04 19:35 49.74455 18.37830 25581 ft 413 kts 232°
2026-05-04 19:35 49.72641 18.34360 26017 ft 416 kts 232°
2026-05-04 19:35 49.70812 18.30882 26441 ft 419 kts 232°
2026-05-04 19:35 49.68967 18.27388 26847 ft 422 kts 232°
2026-05-04 19:36 49.67101 18.23869 27256 ft 424 kts 232°
2026-05-04 19:36 49.65224 18.20338 27665 ft 427 kts 232°
2026-05-04 19:36 49.63335 18.16790 28058 ft 429 kts 232°
2026-05-04 19:36 49.61435 18.13225 28437 ft 432 kts 232°
2026-05-04 19:37 49.59517 18.09632 28814 ft 435 kts 232°
2026-05-04 19:37 49.57591 18.06029 29178 ft 437 kts 232°
2026-05-04 19:37 49.55653 18.02409 29547 ft 439 kts 232°
2026-05-04 19:37 49.53706 17.98778 29992 ft 439 kts 232°
2026-05-04 19:38 49.51763 17.95159 30461 ft 437 kts 232°
2026-05-04 19:38 49.49833 17.91569 30951 ft 434 kts 232°
2026-05-04 19:38 49.47911 17.87998 31403 ft 432 kts 232°
2026-05-04 19:38 49.46019 17.84488 31798 ft 432 kts 232°
2026-05-04 19:39 49.44105 17.80941 32178 ft 431 kts 232°
2026-05-04 19:39 49.42193 17.77401 32602 ft 430 kts 232°
2026-05-04 19:39 49.40287 17.73880 33042 ft 428 kts 232°
2026-05-04 19:39 49.38385 17.70370 33452 ft 427 kts 232°
2026-05-04 19:40 49.36488 17.66873 33847 ft 426 kts 232°
2026-05-04 19:40 49.34596 17.63389 34206 ft 425 kts 232°
2026-05-04 19:40 49.32706 17.59915 34534 ft 424 kts 232°
2026-05-04 19:40 49.30820 17.56452 34848 ft 423 kts 232°
2026-05-04 19:41 49.28936 17.52998 35165 ft 422 kts 232°
2026-05-04 19:41 49.27054 17.49551 35484 ft 421 kts 232°
2026-05-04 19:41 49.25180 17.46123 35786 ft 420 kts 232°
2026-05-04 19:41 49.23304 17.42698 35997 ft 421 kts 232°
2026-05-04 19:42 49.21409 17.39239 35975 ft 425 kts 232°
2026-05-04 19:42 49.17607 17.32318 35967 ft 423 kts 232°
2026-05-04 19:43 49.13860 17.25517 35972 ft 416 kts 232°
2026-05-04 19:43 49.10129 17.18758 35975 ft 416 kts 232°
2026-05-04 19:44 49.06392 17.12006 35974 ft 417 kts 232°
2026-05-04 19:44 49.02646 17.05257 35971 ft 417 kts 232°
2026-05-04 19:45 48.98895 16.98515 35969 ft 417 kts 232°
2026-05-04 19:45 48.95136 16.91775 35965 ft 418 kts 232°
2026-05-04 19:46 48.91371 16.85042 35961 ft 418 kts 231°
2026-05-04 19:46 48.87597 16.78310 35957 ft 418 kts 231°
2026-05-04 19:47 48.83826 16.71599 35951 ft 418 kts 231°
2026-05-04 19:47 48.80050 16.64894 35945 ft 418 kts 231°
2026-05-04 19:48 48.76228 16.58257 35941 ft 418 kts 230°
2026-05-04 19:48 48.72313 16.51833 35941 ft 418 kts 229°
2026-05-04 19:49 48.68363 16.45384 35929 ft 418 kts 229°
2026-05-04 19:49 48.64426 16.38928 35926 ft 417 kts 229°
2026-05-04 19:50 48.60494 16.32476 35921 ft 417 kts 229°
2026-05-04 19:50 48.56566 16.26043 35917 ft 417 kts 229°
2026-05-04 19:51 48.52633 16.19618 35919 ft 416 kts 229°
2026-05-04 19:51 48.48702 16.13213 35910 ft 416 kts 229°
2026-05-04 19:52 48.44769 16.06817 35911 ft 416 kts 229°
2026-05-04 19:52 48.40912 16.00353 35903 ft 414 kts 234°
2026-05-04 19:53 48.37553 15.93330 35900 ft 413 kts 236°
2026-05-04 19:53 48.34823 15.87440 35907 ft 413 kts 236°
2026-05-04 19:54 48.31519 15.80377 35910 ft 413 kts 236°
2026-05-04 19:54 48.28191 15.73350 35913 ft 413 kts 236°
2026-05-04 19:55 48.24842 15.66323 35908 ft 414 kts 235°
2026-05-04 19:55 48.21485 15.59306 35910 ft 414 kts 235°
2026-05-04 19:56 48.18120 15.52290 35912 ft 415 kts 235°
2026-05-04 19:56 48.14744 15.45268 35915 ft 416 kts 235°
2026-05-04 19:57 48.11358 15.38243 35914 ft 416 kts 235°
2026-05-04 19:57 48.07964 15.31219 35917 ft 417 kts 234°
2026-05-04 19:58 48.04557 15.24187 35916 ft 418 kts 234°
2026-05-04 19:58 48.01147 15.17168 35917 ft 418 kts 234°
2026-05-04 19:59 47.97725 15.10141 35914 ft 418 kts 234°
2026-05-04 19:59 47.94296 15.03119 35914 ft 419 kts 234°
2026-05-04 20:00 47.90870 14.96118 35920 ft 418 kts 234°
2026-05-04 20:00 47.87436 14.89123 35916 ft 418 kts 234°
2026-05-04 20:01 47.84004 14.82147 35921 ft 417 kts 234°
2026-05-04 20:01 47.80602 14.75250 35928 ft 416 kts 234°
2026-05-04 20:02 47.77173 14.68317 35923 ft 416 kts 234°
2026-05-04 20:02 47.73770 14.61453 35930 ft 415 kts 234°
2026-05-04 20:03 47.70323 14.54517 35932 ft 414 kts 234°
2026-05-04 20:03 47.66926 14.47700 35941 ft 413 kts 234°
2026-05-04 20:04 47.63511 14.40863 35947 ft 412 kts 234°
2026-05-04 20:04 47.60091 14.34034 35946 ft 413 kts 234°
2026-05-04 20:05 47.56667 14.27213 35962 ft 413 kts 234°
2026-05-04 20:05 47.53235 14.20393 35963 ft 414 kts 234°
2026-05-04 20:06 47.49788 14.13561 35972 ft 415 kts 233°
2026-05-04 20:06 47.46330 14.06723 35969 ft 416 kts 233°
2026-05-04 20:07 47.42862 13.99883 35968 ft 416 kts 233°
2026-05-04 20:07 47.39393 13.93058 35971 ft 416 kts 233°
2026-05-04 20:08 47.35920 13.86241 35978 ft 415 kts 233°
2026-05-04 20:08 47.32447 13.79440 35986 ft 415 kts 233°
2026-05-04 20:09 47.28971 13.72648 36004 ft 414 kts 233°
2026-05-04 20:09 47.25811 13.65587 36001 ft 412 kts 244°
2026-05-04 20:10 47.23361 13.57969 36017 ft 411 kts 245°
2026-05-04 20:10 47.20935 13.50357 36007 ft 411 kts 244°
2026-05-04 20:11 47.18489 13.42784 36008 ft 410 kts 244°
2026-05-04 20:11 47.16029 13.35238 36013 ft 409 kts 244°
2026-05-04 20:12 47.13562 13.27707 36012 ft 409 kts 244°
2026-05-04 20:12 47.11090 13.20187 36015 ft 409 kts 244°
2026-05-04 20:13 47.08608 13.12658 36019 ft 410 kts 244°
2026-05-04 20:13 47.06122 13.05137 36024 ft 410 kts 244°
2026-05-04 20:14 47.03633 12.97627 36026 ft 409 kts 244°
2026-05-04 20:14 47.01141 12.90129 36031 ft 410 kts 244°
2026-05-04 20:15 46.98652 12.82664 36040 ft 410 kts 244°
2026-05-04 20:15 46.96143 12.75160 36039 ft 410 kts 244°
2026-05-04 20:16 46.93628 12.67662 36044 ft 411 kts 244°
2026-05-04 20:16 46.91102 12.60150 36066 ft 412 kts 244°
2026-05-04 20:17 46.88568 12.52634 36090 ft 412 kts 244°
2026-05-04 20:17 46.86028 12.45124 36122 ft 412 kts 244°
2026-05-04 20:18 46.83488 12.37632 36132 ft 412 kts 244°
2026-05-04 20:18 46.80943 12.30148 36154 ft 411 kts 244°
2026-05-04 20:19 46.78378 12.22692 36157 ft 411 kts 243°
2026-05-04 20:19 46.75786 12.15265 36147 ft 410 kts 243°
2026-05-04 20:20 46.73201 12.07874 36139 ft 409 kts 243°
2026-05-04 20:20 46.70623 12.00509 36135 ft 407 kts 243°
2026-05-04 20:21 46.68064 11.93215 36097 ft 407 kts 243°
2026-05-04 20:21 46.64206 11.82254 36079 ft 405 kts 243°
2026-05-04 20:22 46.61644 11.74997 36044 ft 400 kts 243°
2026-05-04 20:22 46.59103 11.67830 36048 ft 398 kts 243°
2026-05-04 20:23 46.57831 11.64250 35886 ft 399 kts 243°
2026-05-04 20:23 46.56564 11.60686 35620 ft 394 kts 243°
2026-05-04 20:23 46.55312 11.57170 35209 ft 391 kts 242°
2026-05-04 20:23 46.54068 11.53678 34850 ft 387 kts 242°
2026-05-04 20:24 46.52835 11.50222 34466 ft 384 kts 242°
2026-05-04 20:24 46.51606 11.46784 34090 ft 382 kts 242°
2026-05-04 20:24 46.50387 11.43376 33659 ft 379 kts 242°
2026-05-04 20:24 46.49176 11.39991 33262 ft 377 kts 242°
2026-05-04 20:25 46.47972 11.36632 32883 ft 373 kts 242°
2026-05-04 20:25 46.46780 11.33314 32512 ft 370 kts 241°
2026-05-04 20:25 46.45609 11.30013 32125 ft 367 kts 242°
2026-05-04 20:25 46.44473 11.26717 31772 ft 364 kts 242°
2026-05-04 20:26 46.43353 11.23435 31407 ft 362 kts 242°
2026-05-04 20:26 46.42241 11.20177 31062 ft 360 kts 242°
2026-05-04 20:26 46.41133 11.16939 30865 ft 358 kts 242°
2026-05-04 20:26 46.40026 11.13717 30520 ft 356 kts 242°
2026-05-04 20:27 46.38922 11.10510 30157 ft 355 kts 242°
2026-05-04 20:27 46.37822 11.07322 29752 ft 353 kts 242°
2026-05-04 20:27 46.36729 11.04157 29300 ft 351 kts 242°
2026-05-04 20:27 46.35627 11.00975 28457 ft 359 kts 242°
2026-05-04 20:28 46.34471 10.97643 27078 ft 382 kts 242°
2026-05-04 20:28 46.33251 10.94126 26011 ft 397 kts 242°
2026-05-04 20:28 46.32011 10.90553 25423 ft 397 kts 242°
2026-05-04 20:28 46.30781 10.87014 25024 ft 391 kts 242°
2026-05-04 20:29 46.29565 10.83515 24585 ft 387 kts 242°
2026-05-04 20:29 46.28362 10.80052 24091 ft 385 kts 242°
2026-05-04 20:29 46.27164 10.76606 23573 ft 383 kts 242°
2026-05-04 20:29 46.25970 10.73176 23043 ft 380 kts 242°
2026-05-04 20:30 46.24790 10.69790 22575 ft 376 kts 242°
2026-05-04 20:30 46.23620 10.66436 22088 ft 372 kts 242°
2026-05-04 20:30 46.22457 10.63105 21554 ft 371 kts 243°
2026-05-04 20:30 46.21298 10.59789 21067 ft 369 kts 243°
2026-05-04 20:31 46.20145 10.56499 20620 ft 366 kts 243°
2026-05-04 20:31 46.19003 10.53237 20160 ft 363 kts 243°
2026-05-04 20:31 46.17867 10.50000 19711 ft 360 kts 243°
2026-05-04 20:31 46.16740 10.46790 19260 ft 358 kts 243°
2026-05-04 20:32 46.15613 10.43590 18821 ft 356 kts 243°
2026-05-04 20:32 46.14495 10.40419 18397 ft 354 kts 243°
2026-05-04 20:32 46.13381 10.37264 17923 ft 351 kts 243°
2026-05-04 20:32 46.12275 10.34133 17461 ft 349 kts 243°
2026-05-04 20:33 46.11180 10.31037 17034 ft 345 kts 242°
2026-05-04 20:33 46.10094 10.27966 16542 ft 343 kts 242°
2026-05-04 20:33 46.09012 10.24914 16045 ft 341 kts 242°
2026-05-04 20:33 46.07938 10.21884 15624 ft 338 kts 242°
2026-05-04 20:34 46.06871 10.18878 15209 ft 336 kts 242°
2026-05-04 20:34 46.05810 10.15896 14756 ft 334 kts 242°
2026-05-04 20:34 46.04691 10.12980 14341 ft 332 kts 234°
2026-05-04 20:34 46.03224 10.10466 14163 ft 326 kts 222°
2026-05-04 20:35 46.01446 10.08398 14197 ft 331 kts 217°
2026-05-04 20:35 45.99611 10.06421 14193 ft 326 kts 216°
2026-05-04 20:35 45.97811 10.04494 14077 ft 319 kts 216°
2026-05-04 20:35 45.96057 10.02603 13839 ft 313 kts 217°
2026-05-04 20:36 45.94909 10.01355 13551 ft 312 kts 217°
2026-05-04 20:36 45.93974 10.00335 13292 ft 313 kts 217°
2026-05-04 20:36 45.92240 9.98442 12870 ft 313 kts 217°
2026-05-04 20:36 45.90515 9.96559 12465 ft 311 kts 217°
2026-05-04 20:37 45.88801 9.94684 12135 ft 308 kts 217°
2026-05-04 20:37 45.87101 9.92823 11735 ft 307 kts 216°
2026-05-04 20:37 45.85407 9.90968 11301 ft 306 kts 216°
2026-05-04 20:37 45.83714 9.89118 10915 ft 304 kts 216°
2026-05-04 20:38 45.82038 9.87290 10570 ft 302 kts 216°
2026-05-04 20:38 45.80929 9.86084 10328 ft 302 kts 216°
2026-05-04 20:38 45.79263 9.84272 9968 ft 300 kts 216°
2026-05-04 20:38 45.77064 9.81881 9419 ft 299 kts 216°
2026-05-04 20:39 45.75946 9.80667 9139 ft 299 kts 216°
2026-05-04 20:39 45.74291 9.78872 8709 ft 298 kts 216°
2026-05-04 20:39 45.72642 9.77083 8317 ft 297 kts 216°
2026-05-04 20:39 45.70996 9.75301 7951 ft 296 kts 216°
2026-05-04 20:40 45.69358 9.73530 7590 ft 295 kts 216°
2026-05-04 20:40 45.67553 9.72194 7169 ft 293 kts 193°
2026-05-04 20:40 45.65533 9.72043 7061 ft 295 kts 172°
2026-05-04 20:40 45.63569 9.72908 7022 ft 295 kts 157°
2026-05-04 20:41 45.61719 9.74089 6989 ft 286 kts 156°
2026-05-04 20:41 45.59944 9.75241 6980 ft 275 kts 156°
2026-05-04 20:41 45.58218 9.76341 6979 ft 269 kts 156°
2026-05-04 20:41 45.56504 9.77414 6996 ft 270 kts 157°
2026-05-04 20:42 45.54781 9.78485 6972 ft 269 kts 156°
2026-05-04 20:42 45.53301 9.80063 6746 ft 269 kts 126°
2026-05-04 20:42 45.52591 9.82524 6398 ft 271 kts 106°
2026-05-04 20:42 45.52111 9.85124 6057 ft 272 kts 106°
2026-05-04 20:43 45.51628 9.87726 5730 ft 271 kts 106°
2026-05-04 20:43 45.51142 9.90317 5422 ft 270 kts 106°
2026-05-04 20:43 45.50650 9.92904 5105 ft 270 kts 106°
2026-05-04 20:43 45.50157 9.95477 4795 ft 269 kts 106°
2026-05-04 20:44 45.49724 9.98063 4515 ft 267 kts 94°
2026-05-04 20:44 45.50014 10.00613 4374 ft 260 kts 65°
2026-05-04 20:44 45.51099 10.02618 4121 ft 258 kts 36°
2026-05-04 20:44 45.52690 10.03678 4028 ft 257 kts 17°
2026-05-04 20:45 45.54467 10.04215 3977 ft 259 kts 359°
2026-05-04 20:45 45.56225 10.03779 3982 ft 256 kts 344°
2026-05-04 20:45 45.57907 10.03084 3969 ft 255 kts 343°
2026-05-04 20:45 45.59590 10.02291 3962 ft 255 kts 333°
2026-05-04 20:46 45.60841 10.00616 3980 ft 243 kts 298°
2026-05-04 20:46 45.61503 9.98491 3965 ft 227 kts 292°
2026-05-04 20:46 45.62040 9.96421 3833 ft 219 kts 287°
2026-05-04 20:46 45.62462 9.94347 3765 ft 218 kts 284°
2026-05-04 20:47 45.62846 9.92224 3587 ft 222 kts 284°
2026-05-04 20:47 45.63224 9.90125 3310 ft 213 kts 284°
2026-05-04 20:47 45.63587 9.88130 3037 ft 201 kts 284°
2026-05-04 20:47 45.63927 9.86273 2769 ft 186 kts 285°
2026-05-04 20:48 45.64242 9.84550 2531 ft 173 kts 285°
2026-05-04 20:48 45.64537 9.82939 2306 ft 162 kts 285°
2026-05-04 20:48 45.64814 9.81430 2093 ft 152 kts 285°
2026-05-04 20:48 45.65074 9.80011 1910 ft 146 kts 285°
2026-05-04 20:49 45.65332 9.78604 1719 ft 146 kts 285°
2026-05-04 20:49 45.65587 9.77210 1516 ft 144 kts 285°
2026-05-04 20:49 45.65843 9.75831 1315 ft 143 kts 286°
2026-05-04 20:49 45.66096 9.74447 1115 ft 144 kts 286°
2026-05-04 20:50 45.66347 9.73064 942 ft 143 kts 286°
2026-05-04 20:50 45.66602 9.71692 772 ft 140 kts 286°
2026-05-04 20:50 45.66812 9.70552 777 ft 89 kts 285°
2026-05-04 20:50 45.66893 9.70091 784 ft 16 kts 271°
2026-05-04 20:51 45.66860 9.69933 784 ft 16 kts 239°
2026-05-04 20:51 45.66798 9.69852 784 ft 7 kts 167°
2026-05-04 20:51 45.66772 9.69873 783 ft 0 kts 130°
2026-05-04 20:51 45.66771 9.69876 783 ft 0 kts 128°
2026-05-04 20:52 45.66769 9.69880 783 ft 1 kts 126°
2026-05-04 20:52 45.66763 9.69894 783 ft 3 kts 118°
2026-05-04 20:52 45.66752 9.69939 783 ft 7 kts 103°
2026-05-04 20:52 45.66740 9.70008 782 ft 4 kts 104°
2026-05-04 20:53 45.66739 9.70011 782 ft 0 kts 115°
2026-05-04 20:53 45.66734 9.70014 782 ft 2 kts 151°
2026-05-04 20:53 45.66712 9.70018 782 ft 4 kts 187°
2026-05-04 20:53 45.66679 9.70004 783 ft 6 kts 196°
2026-05-04 20:54 45.66644 9.69990 783 ft 4 kts 194°
2026-05-04 20:54 45.66637 9.69987 783 ft 1 kts 195°
2026-05-04 20:54 45.66634 9.69986 783 ft 0 kts 195°